Lid_Strength_Index
7 7 7 6 6 5 4 2 2 1 1 0 -0 -1 -1 -1 -1 1 2 3 3 6 5 4 5 7 7 7 10 8 9 8 10 13 13 14 14 13 14 14 15 15 16 16 15 17 19 9 9 13 11 9 9 8
7 7 7 7 6 5 4 3 2 1 1 0 -0 -0 -1 -1 -1 -0 4 2 1 4 5 3 4 3 4 5 7 7 9 8 8 11 11 11 13 12 13 16 12 15 14 14 13 14 10 9 10 9 10 10 10 10
7 7 7 7 6 6 5 3 2 2 1 0 0 -0 -1 -1 -1 -1 2 2 3 5 6 8 7 5 3 3 3 8 8 7 7 6 9 10 13 11 15 14 14 12 11 13 13 10 11 10 9 10 10 10 9 9
7 7 7 7 7 6 5 4 2 2 1 1 0 -0 -0 -1 -1 -0 3 3 3 4 9 9 5 6 3 3 4 4 6 6 6 7 9 10 12 9 12 11 12 11 11 14 13 11 11 9 11 11 10 9 9 8
7 7 7 7 7 6 6 4 3 2 1 1 0 0 0 1 -0 2 4 4 4 7 11 10 7 5 4 4 4 4 6 8 8 9 10 11 9 9 9 9 11 9 13 14 15 11 12 11 10 10 10 10 9 9
7 7 7 7 7 7 6 5 3 2 1 1 0 0 0 0 1 6 8 5 5 5 8 13 8 6 5 3 4 4 6 6 6 8 9 9 8 8 11 12 9 9 9 10 11 9 9 9 9 8 9 10 8 8
6 7 7 7 7 7 7 6 4 3 2 1 1 1 0 1 5 7 8 6 3 5 8 10 10 6 5 4 5 5 5 7 8 8 9 9 9 8 10 13 9 8 8 9 9 9 10 10 11 9 9 9 8 7
7 7 7 7 7 7 7 6 5 3 2 2 2 0 1 1 3 6 5 3 4 7 7 10 11 10 5 7 8 6 7 9 9 9 9 10 9 9 12 8 8 9 9 8 9 8 9 9 9 8 8 9 8 8
7 7 7 7 7 7 7 7 6 4 3 2 1 1 4 6 7 6 1 3 5 8 11 10 12 12 6 7 6 8 8 11 8 9 9 9 11 12 9 8 9 9 9 9 7 9 9 9 9 9 9 9 9 9
6 7 7 7 7 7 7 7 6 5 4 2 4 6 8 5 1 2 6 7 7 7 7 10 8 11 8 8 9 9 9 11 12 10 8 10 11 7 7 6 6 7 7 7 10 10 8 10 9 9 9 8 8 8
6 6 6 7 7 7 7 6 6 6 6 8 9 8 6 3 5 7 10 11 10 10 7 8 8 9 6 10 10 9 11 11 15 11 11 12 12 9 6 6 6 6 6 7 8 8 8 9 9 9 9 8 8 7
6 6 6 6 7 7 7 6 6 10 11 9 6 5 6 7 9 10 13 11 11 12 9 10 9 9 7 8 11 10 12 13 14 9 12 14 10 7 7 7 7 6 7 8 8 8 7 8 8 9 9 9 8 7
6 6 6 6 7 7 7 6 7 7 7 6 7 8 10 10 14 12 14 13 11 10 9 9 11 9 9 9 10 11 14 14 11 15 13 11 8 7 7 6 6 6 6 6 6 7 7 8 7 7 8 8 7 7
6 6 6 7 7 7 6 7 7 7 9 10 11 16 14 14 13 12 12 11 9 9 9 9 10 11 11 12 10 15 14 14 14 15 14 10 9 8 7 6 6 5 5 6 6 6 7 7 7 6 6 7 7 8
6 5 6 7 6 7 7 7 7 8 9 10 13 17 15 11 10 9 8 9 8 8 9 10 10 10 13 12 10 14 15 20 16 14 11 9 8 8 7 6 6 6 5 5 5 6 7 7 7 8 7 7 6 7
6 6 8 6 7 7 7 8 8 7 7 9 11 14 12 12 11 10 10 10 8 9 8 9 12 12 13 11 15 14 14 15 13 11 8 8 8 8 7 6 6 5 5 5 4 5 5 6 7 7 7 6 6 6
6 9 7 6 7 7 7 9 7 7 8 10 13 11 12 12 12 11 10 9 8 9 10 10 12 12 12 15 14 11 12 11 9 8 8 8 8 7 6 6 5 5 6 5 5 4 4 4 5 6 6 5 5 5
8 8 7 7 6 7 8 7 8 8 11 11 12 12 11 11 12 12 10 9 8 9 9 10 10 13 15 15 17 11 10 9 7 7 7 7 7 6 6 6 6 5 5 5 5 5 5 4 5 5 4 4 5 5
6 7 6 6 7 9 10 8 7 11 11 11 11 11 11 11 10 10 10 10 8 8 8 9 11 13 13 10 10 9 9 8 8 7 7 6 6 6 5 5 5 6 6 5 5 5 5 5 4 4 4 4 4 5
5 6 6 6 6 9 9 8 6 9 12 10 11 11 11 11 10 10 10 10 10 10 10 10 10 9 9 8 7 7 7 7 7 7 6 6 6 7 6 7 7 6 6 6 5 6 5 5 4 4 4 5 5 5
6 6 6 7 7 7 9 9 9 9 9 10 10 11 11 11 11 11 10 9 11 12 12 9 9 7 7 6 6 6 7 7 7 7 7 7 6 7 6 6 6 6 7 6 6 5 5 5 5 4 4 4 4 5
7 5 7 7 8 8 10 9 9 8 10 10 11 10 12 14 12 11 10 10 10 10 10 9 8 7 6 6 6 5 5 5 6 6 6 6 6 6 6 6 7 7 6 6 6 6 5 5 6 4 5 5 5 4
7 7 8 9 8 10 11 7 9 9 11 11 12 12 13 14 11 9 11 10 9 8 8 8 7 6 6 5 5 5 5 5 6 6 5 6 5 5 6 6 6 7 7 6 5 5 5 8 5 5 5 5 6 6
6 9 10 11 10 12 9 11 11 12 13 13 14 13 12 12 10 13 13 11 10 9 8 7 7 7 6 6 5 5 6 6 6 6 5 5 6 6 5 6 6 6 6 6 5 5 4 5 6 4 5 6 6 6
11 12 13 15 11 11 11 12 12 14 12 12 12 12 13 11 15 14 13 11 10 10 8 8 8 8 7 6 6 5 4 5 5 5 5 6 5 5 5 5 5 6 5 5 5 5 5 4 5 5 6 6 7 8
15 15 15 13 13 13 12 13 12 12 12 13 12 11 13 13 14 14 12 11 11 10 9 8 8 8 7 6 6 6 5 5 5 5 6 6 6 5 6 6 7 6 5 5 4 4 5 5 5 6 7 7 9 8
17 16 13 10 12 11 12 11 11 13 12 13 14 13 14 15 15 12 11 10 9 8 7 7 7 7 7 7 6 5 5 4 4 4 4 4 4 4 5 6 6 5 4 4 4 4 5 5 6 6 7 8 8 7
13 13 14 13 13 13 12 13 13 13 12 11 11 13 13 14 14 10 10 9 8 8 7 6 6 6 7 7 6 5 5 3 2 3 4 4 4 4 4 4 5 7 5 6 4 4 4 5 6 7 8 9 9 8
12 12 11 13 13 13 13 13 12 11 9 9 12 13 11 9 8 8 8 7 6 6 7 8 8 6 5 5 5 6 5 5 6 7 7 8 8 7 6 5 3 3 3 5 8 7 5 6 6 7 7 8 8 8
12 11 13 13 13 14 12 10 11 10 9 11 10 10 10 9 7 6 6 7 7 7 6 6 7 6 6 6 7 7 7 7 6 6 7 7 7 6 6 6 5 5 4 4 4 5 7 6 8 8 9 10 11 11
11 11 13 13 13 11 9 9 10 10 11 12 10 11 11 9 6 5 6 7 6 6 5 5 5 4 5 6 7 8 9 9 8 8 7 7 7 7 6 6 5 4 4 4 5 6 6 8 9 10 11 11 11 12
12 12 12 13 12 10 10 12 13 12 11 11 11 10 8 7 8 7 6 6 6 6 7 5 5 6 6 7 8 8 9 9 9 9 8 9 8 8 7 6 5 4 4 5 6 7 8 10 11 11 11 11 12 12
11 10 10 11 12 12 12 13 13 13 13 14 10 9 9 9 9 8 6 6 6 5 5 5 4 4 6 6 8 9 9 9 10 10 10 10 11 10 9 7 5 5 6 7 7 8 9 10 11 11 11 11 12 12